Weather History for Walla Walla, WA

Change the Weather History Date:

Wednesday, July 10, 2013

  Actual Average Record
Temperature  
Mean Temperature 84 °F -  
Max Temperature 97 °F 85 °F 114 °F (1975)
Min Temperature 70 °F 60 °F 48 °F (1974)
Cooling Degree Days 18    
Growing Degree Days 34 (Base 50)    
Moisture  
Dew Point 41 °F    
Average Humidity 25    
Maximum Humidity 44    
Minimum Humidity 9    
Precipitation  
Precipitation 0.00 in - - ()
Sea Level Pressure  
Sea Level Pressure 29.86 in    
Wind  
Wind Speed 9 mph (SSW)    
Max Wind Speed 16 mph    
Max Gust Speed 22 mph    
Visibility 10 miles    
Events      
Averages and records for this station are not official NWS values.
T = Trace of Precipitation, MM = Missing Value Source: NWS Daily Summary

Daily Weather History Graph

Daily Weather History Graph

Search for Another Location

Airport:

Trip Planner

Search our weather history database for the weather conditions in past years. The results will help you decide how hot, cold, wet, or windy it might be!

Date:

Astronomy

Jul. 10, 2013 Rise Set
Actual Time 5:12 AM PDT 8:44 PM PDT
Civil Twilight 4:35 AM PDT 9:21 PM PDT
Nautical Twilight 3:45 AM PDT 10:11 PM PDT
Astronomical Twilight 2:39 AM PDT 11:16 PM PDT
Moon 7:48 AM PDT (7/10) 9:43 PM PDT (7/10)
Length of Visible Light 16h 46m
Length of Day
15h 31m
Waxing Crescent, 6% of the Moon is Illuminated
Jul 10
Waxing Crescent
Jul 15
First Quarter
Jul 22
Full
Jul 29
Last Quarter
Aug 6
New

Hourly Weather History & Observations

Time (PDT) Temp. Dew Point Humidity Pressure Visibility Wind Dir Wind Speed Gust Speed Precip Events Conditions
12:53 AM 73.9 °F 42.1 °F 32% 29.91 in 10.0 mi ESE 6.9 mph - N/A   Clear
1:53 AM 72.0 °F 42.1 °F 34% 29.90 in 10.0 mi East 8.1 mph - N/A   Clear
2:53 AM 70.0 °F 45.0 °F 41% 29.92 in 10.0 mi SSE 4.6 mph - N/A   Clear
3:53 AM 73.9 °F 43.0 °F 33% 29.91 in 10.0 mi South 9.2 mph - N/A   Clear
4:53 AM 73.0 °F 46.9 °F 39% 29.92 in 10.0 mi South 8.1 mph - N/A   Clear
5:53 AM 70.0 °F 46.9 °F 44% 29.92 in 10.0 mi South 5.8 mph - N/A   Clear
6:53 AM 73.9 °F 48.9 °F 41% 29.93 in 10.0 mi South 5.8 mph - N/A   Clear
7:53 AM 78.1 °F 48.0 °F 35% 29.93 in 10.0 mi SSW 9.2 mph - N/A   Clear
8:53 AM 81.0 °F 46.0 °F 29% 29.92 in 10.0 mi WSW 10.4 mph 19.6 mph N/A   Clear
9:53 AM 84.0 °F 45.0 °F 25% 29.92 in 10.0 mi SW 13.8 mph - N/A   Clear
10:53 AM 87.1 °F 45.0 °F 23% 29.91 in 10.0 mi WSW 11.5 mph 20.7 mph N/A   Clear
11:53 AM 89.1 °F 44.1 °F 21% 29.90 in 10.0 mi Variable 6.9 mph - N/A   Clear
12:53 PM 91.0 °F 39.9 °F 17% 29.87 in 10.0 mi Variable 6.9 mph - N/A   Clear
1:53 PM 93.9 °F 37.0 °F 14% 29.85 in 10.0 mi WSW 13.8 mph 18.4 mph N/A   Clear
2:53 PM 95.0 °F 36.0 °F 13% 29.82 in 10.0 mi West 9.2 mph 21.9 mph N/A   Clear
3:53 PM 96.1 °F 37.0 °F 13% 29.81 in 10.0 mi SW 13.8 mph - N/A   Clear
4:53 PM 97.0 °F 34.0 °F 11% 29.78 in 10.0 mi WSW 13.8 mph - N/A   Clear
5:53 PM 96.1 °F 28.9 °F 9% 29.76 in 10.0 mi WSW 16.1 mph 20.7 mph N/A   Clear
6:53 PM 93.9 °F 34.0 °F 12% 29.75 in 10.0 mi SW 10.4 mph - N/A   Clear
7:53 PM 91.0 °F 35.1 °F 14% 29.74 in 10.0 mi SW 15.0 mph - N/A   Clear
8:53 PM 86.0 °F 37.0 °F 18% 29.75 in 10.0 mi SSW 10.4 mph - N/A   Clear
9:53 PM 81.0 °F 39.0 °F 22% 29.78 in 10.0 mi SSW 11.5 mph - N/A   Clear
10:53 PM 78.1 °F 44.1 °F 30% 29.81 in 10.0 mi South 12.7 mph - N/A   Clear
11:53 PM 75.9 °F 44.1 °F 32% 29.83 in 10.0 mi South 9.2 mph - N/A   Clear